Simultaneous Nadir Overpasses (SNOs) Predictions

Prediction of SNOs near US between AQUA and NPP Satellite Orbit:

Table of predicted SNOs near US for the next 10.0 days since TLE Epoch: 8/26/2017
Index Date (AQUA) Time (AQUA) AQUA Lat,Lon Date (NPP) Time (NPP) NPP Lat,Lon Distance(km) Time Diff (sec)
1 08/28/2017 08:34:45 20.05,-101.86 08/28/2017 08:26:25 19.23,-102.20 97.89 500
2 08/28/2017 10:11:21 28.31,-124.58 08/28/2017 10:05:18 28.42,-125.23 64.95 363
3 08/31/2017 07:18:27 49.93, -75.97 08/31/2017 07:20:26 50.38, -78.12 160.97 119
4 08/31/2017 08:57:20 49.93,-100.69 08/31/2017 09:01:54 50.49,-103.45 205.40 274
5 09/02/2017 18:16:37 49.97, -80.17 09/02/2017 18:10:45 49.68, -81.72 115.71 352
6 09/02/2017 19:55:30 49.96,-104.89 09/02/2017 19:52:13 49.57,-107.04 160.97 197
7 09/02/2017 21:30:41 36.73,-125.00 09/02/2017 21:29:53 36.25,-127.56 235.22 48




NCC Satellite Simultaneous Nadir Overpasses (SNOs) Prediction Service
